User: anonymous   Login
Location: Caltech
(34.1382°N, 118.1253°W)
Time: 01:22:51
(UTC-08:00)
Language:

Cosmos 1937 Rocket - Orbit

View from above orbital plane
View from above orbital plane
View from above satellite
View from above satellite

Ground track
Ground track

The orbit data is extracted from the following two-line orbital elements,

1 19039U 88029B   17057.80433139  .00000071  00000-0  31882-4 0  9994
2 19039  74.0488 142.6964 0024199 340.3888 163.0591 14.38347350514986
Epoch (UTC): 26 February 2017 19:18:14
Eccentricity: 0.0024199
inclination: 74.0488°
perigee height: 746 km
apogee height: 781 km
right ascension of ascending node: 142.6964°
argument of perigee: 340.3888°
revolutions per day: 14.38347350
mean anomaly at epoch: 163.0591°
orbit number at epoch: 51498

The dashed part of the orbit path shows where the satellite is in the earth's shadow,  

DLR